QPF
0.01 0.01 0.01 0.01 0.02 0.03 0.03 0.03 0.03 0.02 0.03 0.03 0.02 0.02 0.02 0.03 0.05 0.05 0.04 0.03 0.04 0.03 0.02 0.02 0.02 0.03 0.04 0.05 0.06 0.07 0.07 0.08 0.11 0.15 0.16 0.17 0.18 0.19 0.18 0.16 0.15 0.13 0.12
0.01 0.00 0.00 0.00 0.00 0.01 0.01 0.01 0.01 0.02 0.02 0.01 0.01 0.01 0.02 0.02 0.02 0.01 0.01 0.01 0.01 0.02 0.01 0.01 0.01 0.02 0.03 0.03 0.04 0.06 0.07 0.08 0.09 0.12 0.15 0.14 0.15 0.16 0.18 0.17 0.14 0.13 0.12
0.02 0.01 0.00 0.00 0.00 0.00 0.00 0.00 0.00 0.01 0.01 0.01 0.01 0.01 0.01 0.01 0.01 0.02 0.02 0.01 0.01 0.01 0.01 0.01 0.02 0.02 0.02 0.02 0.02 0.05 0.06 0.06 0.08 0.11 0.13 0.13 0.12 0.10 0.11 0.12 0.10 0.09 0.09
0.02 0.01 0.00 0.00 0.00 0.00 0.00 0.00 0.00 0.01 0.01 0.01 0.01 0.01 0.01 0.01 0.01 0.01 0.01 0.01 0.01 0.01 0.01 0.01 0.01 0.01 0.02 0.01 0.01 0.03 0.06 0.06 0.09 0.11 0.12 0.14 0.16 0.14 0.11 0.09 0.08 0.08 0.07
0.03 0.01 0.00 0.00 0.00 0.00 0.00 0.00 0.00 0.01 0.01 0.01 0.02 0.01 0.01 0.01 0.01 0.01 0.01 0.01 0.01 0.01 0.01 0.01 0.01 0.01 0.01 0.01 0.01 0.02 0.03 0.05 0.07 0.12 0.13 0.13 0.17 0.18 0.16 0.11 0.09 0.09 0.09
0.01 0.00 0.00 0.00 0.00 0.00 0.00 0.00 0.01 0.01 0.01 0.01 0.01 0.01 0.01 0.01 0.01 0.00 0.00 0.01 0.01 0.01 0.01 0.01 0.01 0.01 0.01 0.01 0.00 0.01 0.01 0.03 0.05 0.08 0.12 0.11 0.13 0.19 0.21 0.15 0.11 0.10 0.10
0.00 0.00 0.00 0.00 0.00 0.00 0.00 0.00 0.00 0.00 0.00 0.00 0.01 0.01 0.00 0.01 0.01 0.00 0.00 0.01 0.01 0.01 0.01 0.01 0.01 0.01 0.01 0.01 0.01 0.01 0.01 0.01 0.02 0.05 0.08 0.10 0.09 0.13 0.18 0.16 0.12 0.12 0.14
0.00 0.00 0.00 0.00 0.00 0.00 0.00 0.00 0.00 0.00 0.00 0.00 0.00 0.00 0.00 0.00 0.00 0.00 0.00 0.00 0.00 0.00 0.00 0.01 0.01 0.01 0.01 0.01 0.01 0.01 0.01 0.01 0.01 0.02 0.04 0.07 0.07 0.09 0.14 0.16 0.16 0.16 0.20
0.00 0.00 0.00 0.00 0.00 0.00 0.00 0.00 0.00 0.00 0.00 0.00 0.00 0.00 0.00 0.00 0.00 0.00 0.00 0.00 0.00 0.00 0.00 0.00 0.00 0.01 0.01 0.01 0.01 0.01 0.01 0.01 0.01 0.01 0.01 0.03 0.04 0.05 0.11 0.15 0.18 0.18 0.21
0.00 0.00 0.00 0.00 0.00 0.00 0.00 0.00 0.00 0.00 0.00 0.00 0.00 0.00 0.00 0.00 0.00 0.00 0.00 0.00 0.00 0.00 0.00 0.00 0.00 0.00 0.01 0.01 0.01 0.01 0.01 0.01 0.01 0.01 0.01 0.01 0.02 0.03 0.06 0.11 0.17 0.20 0.20
0.00 0.00 0.00 0.00 0.00 0.00 0.00 0.00 0.00 0.00 0.00 0.00 0.00 0.00 0.00 0.00 0.00 0.00 0.00 0.00 0.00 0.00 0.00 0.00 0.00 0.00 0.00 0.01 0.01 0.01 0.01 0.01 0.01 0.00 0.00 0.01 0.02 0.02 0.04 0.07 0.11 0.18 0.21
0.00 0.00 0.00 0.00 0.00 0.00 0.00 0.00 0.00 0.00 0.00 0.00 0.00 0.00 0.00 0.00 0.00 0.00 0.00 0.00 0.00 0.00 0.00 0.00 0.01 0.01 0.01 0.01 0.02 0.02 0.01 0.01 0.01 0.00 0.00 0.00 0.01 0.02 0.03 0.05 0.08 0.14 0.20
0.00 0.00 0.00 0.00 0.00 0.00 0.00 0.00 0.00 0.00 0.00 0.00 0.00 0.00 0.00 0.00 0.00 0.00 0.00 0.00 0.00 0.00 0.00 0.00 0.00 0.01 0.01 0.01 0.02 0.03 0.03 0.02 0.02 0.01 0.01 0.00 0.00 0.01 0.02 0.04 0.06 0.11 0.19
0.00 0.00 0.00 0.00 0.00 0.00 0.00 0.00 0.00 0.00 0.00 0.00 0.00 0.00 0.00 0.00 0.00 0.00 0.00 0.00 0.00 0.00 0.00 0.00 0.01 0.01 0.01 0.01 0.01 0.02 0.03 0.03 0.03 0.02 0.02 0.01 0.01 0.00 0.01 0.03 0.05 0.08 0.14
0.00 0.00 0.00 0.00 0.00 0.00 0.00 0.00 0.00 0.00 0.00 0.00 0.00 0.00 0.00 0.00 0.00 0.00 0.00 0.00 0.00 0.00 0.00 0.00 0.00 0.01 0.01 0.01 0.01 0.02 0.03 0.03 0.04 0.04 0.03 0.02 0.01 0.01 0.01 0.01 0.03 0.06 0.10
0.00 0.00 0.00 0.00 0.00 0.00 0.00 0.00 0.00 0.00 0.00 0.00 0.00 0.00 0.00 0.00 0.00 0.00 0.00 0.00 0.00 0.00 0.00 0.00 0.00 0.00 0.00 0.01 0.01 0.02 0.03 0.05 0.05 0.05 0.04 0.03 0.02 0.02 0.02 0.01 0.02 0.04 0.07
0.00 0.00 0.00 0.00 0.00 0.00 0.00 0.00 0.00 0.00 0.00 0.00 0.00 0.00 0.00 0.00 0.00 0.00 0.00 0.00 0.01 0.00 0.00 0.00 0.01 0.00 0.01 0.01 0.01 0.01 0.02 0.03 0.04 0.05 0.05 0.04 0.03 0.03 0.02 0.02 0.02 0.02 0.05
0.00 0.00 0.00 0.00 0.00 0.00 0.00 0.00 0.00 0.00 0.00 0.00 0.00 0.00 0.00 0.00 0.00 0.00 0.00 0.01 0.01 0.01 0.01 0.01 0.01 0.00 0.00 0.01 0.01 0.01 0.01 0.02 0.03 0.04 0.05 0.05 0.04 0.05 0.05 0.03 0.02 0.01 0.02
0.00 0.00 0.00 0.00 0.00 0.00 0.00 0.00 0.00 0.00 0.00 0.00 0.00 0.00 0.00 0.00 0.00 0.00 0.00 0.01 0.01 0.00 0.01 0.01 0.01 0.01 0.01 0.01 0.01 0.01 0.01 0.01 0.02 0.03 0.04 0.05 0.04 0.05 0.05 0.05 0.03 0.02 0.01
0.00 0.00 0.00 0.00 0.00 0.00 0.00 0.00 0.00 0.00 0.00 0.00 0.00 0.00 0.00 0.00 0.00 0.00 0.01 0.01 0.01 0.01 0.01 0.01 0.01 0.01 0.01 0.01 0.01 0.01 0.01 0.01 0.02 0.03 0.04 0.06 0.06 0.06 0.05 0.06 0.05 0.03 0.02
0.00 0.00 0.00 0.00 0.00 0.00 0.00 0.00 0.00 0.00 0.00 0.00 0.00 0.00 0.00 0.00 0.00 0.01 0.01 0.01 0.01 0.01 0.02 0.01 0.01 0.02 0.01 0.01 0.01 0.01 0.01 0.01 0.02 0.03 0.04 0.05 0.05 0.05 0.04 0.04 0.04 0.03 0.02
0.00 0.00 0.00 0.00 0.00 0.00 0.00 0.00 0.00 0.00 0.00 0.00 0.00 0.00 0.00 0.00 0.00 0.01 0.01 0.01 0.02 0.02 0.02 0.02 0.02 0.03 0.02 0.01 0.01 0.01 0.01 0.01 0.03 0.04 0.05 0.06 0.05 0.04 0.04 0.03 0.03 0.03 0.03
0.00 0.00 0.00 0.00 0.00 0.00 0.00 0.00 0.00 0.00 0.00 0.00 0.00 0.00 0.00 0.00 0.01 0.01 0.01 0.01 0.01 0.01 0.01 0.01 0.01 0.02 0.02 0.02 0.01 0.00 0.00 0.01 0.02 0.04 0.07 0.07 0.05 0.04 0.03 0.03 0.03 0.04 0.02
0.00 0.00 0.00 0.00 0.00 0.00 0.00 0.00 0.00 0.00 0.00 0.00 0.00 0.00 0.00 0.00 0.01 0.01 0.01 0.01 0.01 0.01 0.01 0.01 0.01 0.01 0.02 0.02 0.01 0.01 0.01 0.01 0.01 0.03 0.06 0.07 0.06 0.05 0.04 0.03 0.02 0.02 0.01
0.00 0.00 0.00 0.00 0.00 0.00 0.00 0.00 0.00 0.00 0.00 0.00 0.00 0.00 0.00 0.01 0.01 0.01 0.02 0.01 0.01 0.01 0.00 0.00 0.00 0.01 0.01 0.01 0.01 0.01 0.01 0.01 0.01 0.02 0.03 0.04 0.04 0.04 0.03 0.02 0.02 0.01 0.01
0.00 0.00 0.00 0.00 0.00 0.00 0.00 0.00 0.00 0.00 0.00 0.00 0.00 0.00 0.01 0.01 0.01 0.01 0.01 0.01 0.01 0.01 0.00 0.00 0.00 0.00 0.00 0.00 0.01 0.01 0.01 0.01 0.01 0.03 0.03 0.03 0.04 0.04 0.03 0.02 0.01 0.01 0.00
MSLP
1013.70 1013.58 1013.53 1013.51 1013.48 1013.42 1013.32 1013.21 1013.09 1013.01 1012.98 1013.01 1013.09 1013.20 1013.30 1013.35 1013.34 1013.26 1013.12 1012.94 1012.77 1012.64 1012.57 1012.60 1012.70 1012.85 1013.03 1013.19 1013.29 1013.30 1013.23 1013.07 1012.85 1012.60 1012.34 1012.09 1011.87 1011.67 1011.51 1011.37 1011.26 1011.17 1011.12
1013.66 1013.52 1013.44 1013.37 1013.29 1013.18 1013.05 1012.93 1012.84 1012.81 1012.86 1012.98 1013.15 1013.33 1013.47 1013.54 1013.51 1013.37 1013.16 1012.91 1012.68 1012.50 1012.41 1012.42 1012.52 1012.69 1012.87 1013.03 1013.14 1013.15 1013.07 1012.92 1012.70 1012.45 1012.19 1011.94 1011.70 1011.49 1011.29 1011.10 1010.93 1010.78 1010.67
1013.34 1013.21 1013.14 1013.08 1012.99 1012.87 1012.73 1012.61 1012.55 1012.58 1012.71 1012.91 1013.16 1013.41 1013.59 1013.67 1013.63 1013.47 1013.21 1012.91 1012.62 1012.39 1012.26 1012.24 1012.32 1012.47 1012.64 1012.79 1012.89 1012.91 1012.85 1012.71 1012.52 1012.30 1012.07 1011.85 1011.62 1011.40 1011.17 1010.94 1010.71 1010.49 1010.30
1012.87 1012.80 1012.77 1012.75 1012.69 1012.59 1012.46 1012.36 1012.33 1012.40 1012.57 1012.83 1013.13 1013.42 1013.64 1013.74 1013.69 1013.51 1013.23 1012.89 1012.56 1012.29 1012.12 1012.06 1012.11 1012.22 1012.36 1012.50 1012.58 1012.61 1012.57 1012.47 1012.33 1012.17 1011.99 1011.81 1011.61 1011.39 1011.15 1010.88 1010.60 1010.31 1010.04
1012.40 1012.41 1012.47 1012.51 1012.50 1012.44 1012.34 1012.26 1012.23 1012.31 1012.49 1012.77 1013.08 1013.39 1013.62 1013.72 1013.68 1013.49 1013.20 1012.84 1012.49 1012.19 1011.99 1011.89 1011.89 1011.95 1012.06 1012.16 1012.24 1012.27 1012.26 1012.21 1012.13 1012.03 1011.92 1011.80 1011.64 1011.45 1011.21 1010.91 1010.58 1010.23 1009.88
1012.06 1012.16 1012.31 1012.44 1012.50 1012.48 1012.40 1012.32 1012.29 1012.34 1012.50 1012.74 1013.03 1013.31 1013.52 1013.62 1013.57 1013.38 1013.09 1012.74 1012.39 1012.08 1011.85 1011.71 1011.66 1011.69 1011.75 1011.82 1011.88 1011.93 1011.94 1011.94 1011.92 1011.90 1011.86 1011.79 1011.69 1011.53 1011.30 1011.00 1010.64 1010.24 1009.84
1011.93 1012.12 1012.36 1012.57 1012.69 1012.70 1012.64 1012.55 1012.48 1012.49 1012.58 1012.75 1012.97 1013.19 1013.36 1013.43 1013.37 1013.19 1012.92 1012.58 1012.24 1011.93 1011.69 1011.53 1011.44 1011.43 1011.45 1011.49 1011.53 1011.58 1011.61 1011.65 1011.69 1011.73 1011.76 1011.76 1011.71 1011.59 1011.38 1011.09 1010.73 1010.32 1009.89
1012.02 1012.29 1012.60 1012.86 1013.02 1013.06 1013.00 1012.88 1012.77 1012.69 1012.70 1012.78 1012.91 1013.05 1013.15 1013.18 1013.10 1012.92 1012.66 1012.35 1012.04 1011.74 1011.50 1011.33 1011.22 1011.17 1011.15 1011.16 1011.19 1011.23 1011.28 1011.35 1011.43 1011.52 1011.60 1011.66 1011.66 1011.59 1011.43 1011.17 1010.83 1010.43 1010.00
1012.30 1012.61 1012.96 1013.25 1013.43 1013.47 1013.39 1013.23 1013.06 1012.91 1012.81 1012.79 1012.82 1012.86 1012.89 1012.87 1012.77 1012.59 1012.35 1012.07 1011.78 1011.51 1011.28 1011.11 1010.98 1010.90 1010.85 1010.83 1010.84 1010.86 1010.92 1011.00 1011.11 1011.24 1011.36 1011.47 1011.52 1011.50 1011.39 1011.19 1010.90 1010.55 1010.16
1012.69 1013.01 1013.35 1013.64 1013.80 1013.82 1013.71 1013.51 1013.27 1013.05 1012.87 1012.75 1012.68 1012.64 1012.59 1012.52 1012.39 1012.21 1011.98 1011.73 1011.47 1011.23 1011.02 1010.84 1010.71 1010.61 1010.54 1010.49 1010.47 1010.47 1010.52 1010.60 1010.72 1010.87 1011.03 1011.17 1011.27 1011.31 1011.26 1011.13 1010.92 1010.64 1010.32
1013.10 1013.39 1013.69 1013.93 1014.05 1014.02 1013.87 1013.63 1013.35 1013.07 1012.83 1012.63 1012.48 1012.36 1012.25 1012.13 1011.98 1011.79 1011.57 1011.34 1011.11 1010.89 1010.70 1010.53 1010.39 1010.27 1010.18 1010.10 1010.05 1010.04 1010.07 1010.14 1010.26 1010.41 1010.58 1010.75 1010.90 1010.99 1011.02 1010.97 1010.85 1010.66 1010.43
1013.46 1013.69 1013.92 1014.07 1014.12 1014.04 1013.84 1013.56 1013.25 1012.94 1012.65 1012.41 1012.21 1012.04 1011.88 1011.72 1011.54 1011.34 1011.13 1010.91 1010.70 1010.50 1010.32 1010.16 1010.01 1009.88 1009.76 1009.66 1009.59 1009.55 1009.55 1009.61 1009.71 1009.86 1010.04 1010.23 1010.41 1010.56 1010.66 1010.69 1010.66 1010.58 1010.45
1013.71 1013.86 1013.99 1014.04 1013.99 1013.84 1013.60 1013.30 1012.97 1012.65 1012.36 1012.09 1011.87 1011.66 1011.47 1011.28 1011.08 1010.87 1010.65 1010.44 1010.23 1010.04 1009.87 1009.71 1009.55 1009.41 1009.28 1009.16 1009.06 1008.99 1008.97 1009.00 1009.09 1009.23 1009.41 1009.62 1009.83 1010.02 1010.18 1010.29 1010.35 1010.37 1010.34
1013.84 1013.89 1013.90 1013.84 1013.70 1013.48 1013.19 1012.88 1012.55 1012.24 1011.96 1011.70 1011.47 1011.25 1011.04 1010.82 1010.59 1010.36 1010.13 1009.91 1009.70 1009.51 1009.33 1009.17 1009.01 1008.86 1008.71 1008.57 1008.45 1008.36 1008.31 1008.32 1008.39 1008.52 1008.70 1008.91 1009.14 1009.37 1009.58 1009.76 1009.91 1010.01 1010.07
1013.84 1013.78 1013.67 1013.50 1013.26 1012.98 1012.67 1012.35 1012.04 1011.76 1011.50 1011.26 1011.04 1010.81 1010.58 1010.34 1010.08 1009.82 1009.57 1009.33 1009.10 1008.90 1008.71 1008.54 1008.37 1008.21 1008.05 1007.89 1007.76 1007.65 1007.58 1007.57 1007.62 1007.74 1007.90 1008.12 1008.36 1008.62 1008.87 1009.11 1009.32 1009.49 1009.63
1013.72 1013.56 1013.34 1013.06 1012.74 1012.41 1012.08 1011.77 1011.49 1011.25 1011.02 1010.81 1010.60 1010.37 1010.12 1009.85 1009.56 1009.26 1008.97 1008.70 1008.44 1008.22 1008.01 1007.83 1007.65 1007.48 1007.30 1007.14 1006.99 1006.86 1006.78 1006.75 1006.78 1006.88 1007.04 1007.25 1007.50 1007.77 1008.06 1008.34 1008.60 1008.83 1009.04
1013.49 1013.23 1012.92 1012.56 1012.19 1011.83 1011.50 1011.21 1010.97 1010.77 1010.58 1010.39 1010.19 1009.95 1009.68 1009.37 1009.03 1008.69 1008.35 1008.03 1007.74 1007.48 1007.26 1007.05 1006.86 1006.68 1006.49 1006.32 1006.16 1006.02 1005.92 1005.87 1005.89 1005.97 1006.11 1006.32 1006.57 1006.86 1007.16 1007.48 1007.78 1008.06 1008.32
1013.16 1012.83 1012.45 1012.05 1011.65 1011.29 1010.97 1010.72 1010.52 1010.35 1010.20 1010.03 1009.82 1009.57 1009.26 1008.90 1008.51 1008.11 1007.72 1007.35 1007.02 1006.73 1006.47 1006.25 1006.04 1005.84 1005.65 1005.47 1005.29 1005.15 1005.03 1004.97 1004.97 1005.03 1005.16 1005.36 1005.61 1005.91 1006.23 1006.57 1006.91 1007.24 1007.54
1012.74 1012.38 1011.97 1011.55 1011.16 1010.81 1010.53 1010.32 1010.16 1010.02 1009.89 1009.72 1009.50 1009.22 1008.87 1008.46 1008.01 1007.55 1007.10 1006.68 1006.31 1005.98 1005.70 1005.45 1005.23 1005.02 1004.82 1004.63 1004.45 1004.29 1004.16 1004.08 1004.06 1004.11 1004.23 1004.42 1004.67 1004.98 1005.32 1005.68 1006.06 1006.42 1006.77
1012.27 1011.90 1011.49 1011.09 1010.73 1010.42 1010.19 1010.02 1009.89 1009.78 1009.65 1009.47 1009.23 1008.91 1008.50 1008.04 1007.53 1007.02 1006.52 1006.05 1005.64 1005.28 1004.97 1004.71 1004.47 1004.26 1004.06 1003.86 1003.67 1003.50 1003.37 1003.27 1003.24 1003.27 1003.38 1003.57 1003.82 1004.13 1004.49 1004.88 1005.28 1005.69 1006.08
1011.78 1011.43 1011.05 1010.70 1010.38 1010.13 1009.94 1009.81 1009.70 1009.60 1009.46 1009.26 1008.98 1008.61 1008.15 1007.63 1007.08 1006.51 1005.97 1005.47 1005.03 1004.65 1004.33 1004.06 1003.82 1003.61 1003.41 1003.21 1003.02 1002.85 1002.70 1002.60 1002.56 1002.58 1002.68 1002.86 1003.11 1003.42 1003.80 1004.21 1004.65 1005.09 1005.52
1011.29 1010.99 1010.67 1010.38 1010.12 1009.92 1009.78 1009.67 1009.57 1009.46 1009.29 1009.05 1008.72 1008.30 1007.80 1007.23 1006.63 1006.03 1005.46 1004.95 1004.49 1004.11 1003.79 1003.53 1003.30 1003.10 1002.91 1002.72 1002.53 1002.36 1002.22 1002.11 1002.06 1002.08 1002.17 1002.34 1002.59 1002.91 1003.29 1003.72 1004.18 1004.65 1005.12
1010.84 1010.60 1010.36 1010.13 1009.94 1009.78 1009.67 1009.56 1009.46 1009.31 1009.11 1008.82 1008.44 1007.96 1007.41 1006.81 1006.19 1005.57 1005.00 1004.48 1004.04 1003.67 1003.37 1003.13 1002.92 1002.74 1002.56 1002.39 1002.22 1002.07 1001.93 1001.83 1001.77 1001.78 1001.87 1002.03 1002.27 1002.59 1002.98 1003.42 1003.89 1004.38 1004.87
1010.43 1010.28 1010.11 1009.95 1009.81 1009.69 1009.58 1009.47 1009.33 1009.15 1008.89 1008.54 1008.10 1007.58 1007.00 1006.38 1005.74 1005.13 1004.57 1004.08 1003.66 1003.32 1003.05 1002.84 1002.66 1002.50 1002.36 1002.21 1002.07 1001.93 1001.81 1001.72 1001.67 1001.68 1001.76 1001.92 1002.15 1002.46 1002.84 1003.27 1003.74 1004.24 1004.73
1010.07 1010.00 1009.90 1009.80 1009.70 1009.60 1009.49 1009.36 1009.18 1008.93 1008.61 1008.21 1007.72 1007.17 1006.56 1005.93 1005.30 1004.71 1004.18 1003.72 1003.34 1003.04 1002.81 1002.63 1002.49 1002.36 1002.25 1002.13 1002.02 1001.91 1001.80 1001.73 1001.69 1001.71 1001.79 1001.94 1002.16 1002.45 1002.81 1003.22 1003.67 1004.15 1004.63
1009.73 1009.73 1009.70 1009.66 1009.59 1009.49 1009.37 1009.20 1008.97 1008.67 1008.29 1007.84 1007.31 1006.73 1006.11 1005.48 1004.88 1004.32 1003.83 1003.41 1003.07 1002.81 1002.61 1002.46 1002.35 1002.26 1002.17 1002.09 1002.00 1001.91 1001.84 1001.78 1001.76 1001.79 1001.87 1002.00 1002.21 1002.47 1002.80 1003.18 1003.60 1004.04 1004.49
Thickness
5755 5756 5755 5753 5751 5747 5745 5743 5741 5739 5737 5733 5728 5724 5720 5719 5718 5717 5716 5714 5712 5709 5707 5705 5703 5702 5701 5700 5700 5700 5700 5701 5703 5702 5703 5708 5712 5714 5717 5719 5720 5722 5725
5748 5750 5749 5748 5745 5742 5740 5737 5735 5733 5730 5726 5722 5718 5714 5711 5709 5707 5706 5704 5702 5700 5699 5697 5695 5695 5694 5693 5692 5692 5692 5693 5696 5694 5693 5694 5700 5708 5715 5716 5717 5720 5723
5742 5745 5745 5743 5742 5739 5737 5735 5731 5728 5724 5721 5716 5711 5705 5701 5697 5694 5693 5693 5691 5690 5689 5688 5687 5686 5685 5684 5684 5684 5683 5683 5686 5688 5687 5685 5688 5697 5706 5711 5715 5717 5719
5742 5742 5742 5740 5739 5737 5736 5732 5727 5722 5718 5714 5707 5700 5693 5688 5686 5683 5683 5682 5682 5681 5680 5679 5679 5678 5677 5676 5676 5677 5676 5676 5676 5679 5682 5683 5685 5685 5691 5702 5708 5712 5715
5740 5740 5741 5739 5738 5735 5731 5726 5721 5715 5711 5706 5700 5692 5686 5682 5678 5675 5673 5672 5672 5671 5670 5670 5670 5669 5668 5668 5668 5668 5668 5669 5669 5669 5672 5675 5678 5680 5681 5687 5696 5703 5709
5739 5738 5738 5735 5731 5728 5723 5718 5712 5706 5701 5696 5690 5684 5678 5673 5669 5666 5662 5661 5660 5660 5660 5660 5660 5660 5659 5659 5659 5659 5659 5660 5661 5662 5664 5666 5668 5672 5674 5678 5684 5690 5699
5735 5732 5729 5725 5721 5717 5713 5708 5701 5695 5690 5685 5680 5675 5670 5665 5660 5657 5654 5651 5650 5649 5650 5650 5650 5650 5650 5650 5650 5649 5650 5651 5652 5654 5656 5659 5662 5665 5668 5671 5675 5680 5689
5727 5724 5721 5717 5713 5709 5703 5697 5690 5684 5680 5675 5670 5666 5661 5656 5652 5649 5646 5644 5642 5642 5642 5641 5640 5640 5640 5641 5641 5640 5641 5642 5643 5646 5648 5651 5654 5657 5661 5664 5666 5670 5677
5721 5717 5713 5709 5704 5699 5693 5688 5681 5676 5671 5667 5662 5657 5653 5649 5645 5642 5639 5637 5635 5634 5634 5632 5631 5631 5630 5631 5631 5630 5631 5632 5634 5636 5639 5641 5645 5649 5653 5657 5660 5661 5665
5713 5710 5706 5701 5697 5691 5685 5680 5674 5668 5664 5659 5654 5651 5647 5642 5639 5635 5631 5629 5627 5625 5623 5622 5621 5620 5619 5619 5619 5620 5621 5622 5624 5625 5628 5631 5634 5638 5643 5647 5652 5655 5658
5706 5703 5700 5696 5691 5685 5679 5673 5667 5661 5656 5652 5647 5642 5638 5635 5630 5626 5623 5620 5618 5616 5613 5612 5610 5609 5607 5607 5607 5608 5610 5611 5613 5615 5617 5620 5624 5627 5632 5637 5642 5647 5652
5703 5699 5695 5690 5684 5678 5673 5667 5661 5655 5650 5645 5640 5635 5630 5626 5621 5617 5614 5611 5608 5605 5603 5601 5599 5597 5596 5595 5594 5595 5597 5599 5601 5603 5606 5609 5613 5616 5621 5626 5631 5636 5643
5699 5693 5688 5683 5677 5672 5667 5661 5655 5650 5645 5639 5633 5628 5623 5618 5613 5609 5605 5602 5598 5595 5592 5590 5587 5585 5584 5582 5582 5582 5583 5586 5589 5592 5594 5598 5601 5605 5610 5615 5621 5626 5633
5693 5687 5681 5676 5672 5667 5661 5655 5650 5645 5639 5633 5627 5621 5616 5611 5606 5602 5597 5593 5589 5586 5582 5579 5576 5573 5572 5570 5570 5569 5570 5572 5576 5580 5583 5587 5591 5595 5599 5604 5610 5616 5621
5689 5684 5677 5671 5666 5661 5655 5650 5644 5639 5633 5626 5620 5615 5610 5604 5599 5595 5590 5586 5581 5578 5573 5569 5565 5562 5559 5559 5557 5556 5557 5559 5562 5566 5571 5576 5581 5586 5590 5595 5599 5605 5610
5685 5681 5676 5669 5663 5657 5651 5645 5639 5633 5627 5620 5614 5609 5604 5598 5593 5588 5583 5578 5573 5569 5564 5559 5555 5551 5550 5549 5547 5545 5544 5545 5547 5551 5556 5562 5569 5575 5581 5587 5592 5597 5601
5683 5678 5672 5665 5659 5653 5647 5640 5634 5628 5622 5615 5609 5604 5598 5592 5587 5582 5577 5571 5566 5562 5557 5552 5547 5543 5540 5537 5535 5534 5532 5533 5535 5538 5542 5550 5558 5563 5569 5575 5582 5587 5594
5681 5675 5668 5662 5656 5650 5643 5636 5630 5623 5616 5610 5604 5598 5592 5587 5581 5576 5570 5565 5560 5555 5551 5546 5541 5536 5534 5531 5528 5525 5523 5523 5525 5528 5532 5537 5544 5551 5557 5563 5570 5576 5583
5679 5672 5666 5660 5653 5646 5639 5632 5625 5618 5611 5605 5598 5593 5587 5581 5576 5571 5566 5561 5556 5551 5546 5541 5536 5531 5528 5525 5522 5519 5516 5516 5518 5521 5525 5530 5535 5542 5548 5553 5560 5566 5572
5676 5670 5663 5656 5649 5643 5636 5627 5620 5612 5606 5600 5594 5588 5582 5577 5572 5567 5562 5557 5551 5546 5541 5536 5532 5527 5524 5521 5519 5516 5512 5510 5512 5514 5518 5524 5529 5534 5539 5545 5551 5556 5564
5675 5668 5660 5652 5645 5639 5631 5622 5615 5607 5601 5595 5589 5584 5578 5573 5568 5564 5558 5553 5548 5542 5537 5532 5527 5523 5520 5518 5515 5513 5509 5508 5508 5510 5513 5518 5524 5528 5533 5539 5546 5552 5558
5671 5665 5655 5648 5641 5635 5627 5618 5610 5604 5598 5591 5585 5579 5575 5570 5567 5560 5555 5550 5544 5538 5533 5527 5522 5519 5516 5514 5512 5510 5508 5507 5506 5508 5511 5515 5520 5524 5529 5535 5542 5547 5551
5666 5659 5651 5643 5637 5630 5623 5614 5608 5601 5593 5586 5580 5576 5572 5567 5562 5556 5551 5546 5541 5534 5528 5522 5518 5515 5511 5509 5508 5507 5505 5504 5503 5505 5508 5512 5517 5521 5525 5531 5537 5541 5545
5661 5654 5647 5639 5632 5627 5620 5612 5605 5597 5590 5583 5577 5573 5569 5565 5560 5555 5549 5544 5538 5532 5526 5520 5515 5511 5508 5504 5502 5501 5500 5501 5501 5502 5505 5509 5513 5516 5521 5526 5531 5536 5542
5657 5650 5642 5635 5629 5623 5616 5609 5602 5594 5586 5580 5575 5571 5566 5562 5558 5554 5548 5543 5538 5531 5525 5519 5513 5509 5506 5503 5499 5497 5498 5498 5499 5500 5501 5504 5508 5513 5517 5522 5526 5532 5537
5653 5646 5639 5632 5626 5620 5613 5606 5599 5591 5583 5578 5573 5569 5565 5561 5557 5552 5549 5545 5539 5534 5527 5520 5514 5510 5506 5503 5501 5499 5499 5499 5500 5501 5503 5506 5509 5513 5517 5521 5525 5530 5535